FW9290 Weather Reports


time (UTC)temp
C
wind
direction
speed
KPH
gust
KPH
rain 1hr
cm
rain 24hr
cm
rain mn
cm
humidity
%
barometer
mb
20260506051020 25 0 0.0 1.6 0.00 0.00 0.00 92 1010.0
20260506050518 25 0 0.0 1.6 0.00 0.00 0.00 91 1010.0
20260506045020 25 0 0.0 1.6 0.00 0.00 0.00 91 1010.1
20260506044539 25 0 0.0 1.6 0.00 0.00 0.00 91 1010.1
20260506044025 25 0 0.0 1.6 0.00 0.00 0.00 91 1009.9
20260506043519 25 0 0.0 1.6 0.00 0.00 0.00 91 1009.8
20260506043033 25 0 0.0 1.6 0.00 0.00 0.00 91 1009.8
20260506042519 25 0 0.0 1.6 0.00 0.00 0.00 91 1009.8
20260506042019 25 0 0.0 0.0 0.00 0.00 0.00 91 1009.9
20260506041539 25 48 0.0 1.6 0.00 0.00 0.00 91 1009.8
20260506041018 25 0 0.0 1.6 0.00 0.00 0.00 91 1009.8
20260506040523 25 0 0.0 1.6 0.00 0.00 0.00 91 1009.7
20260506040032 25 160 0.0 1.6 0.00 0.00 0.00 91 1009.8
20260506035519 25 0 0.0 1.6 0.00 0.00 0.00 90 1009.7
20260506035019 25 0 0.0 1.6 0.00 0.00 0.00 90 1009.6
20260506034535 25 0 0.0 3.2 0.00 0.00 0.00 90 1009.4
20260506034020 25 0 0.0 3.2 0.00 0.00 0.00 90 1009.4
20260506033522 25 257 0.0 3.2 0.00 0.00 0.00 89 1009.4
20260506033037 25 0 0.0 3.2 0.00 0.00 0.00 89 1009.3
20260506032519 25 73 0.0 3.2 0.00 0.00 0.00 89 1009.2
20260506032019 25 0 0.0 3.2 0.00 0.00 0.00 89 1009.3
20260506031539 25 0 0.0 1.6 0.00 0.00 0.00 89 1009.3
20260506031021 25 0 0.0 1.6 0.00 0.00 0.00 89 1009.4
20260506030520 25 0 0.0 1.6 0.00 0.00 0.00 89 1009.3
20260506030035 25 0 0.0 1.6 0.00 0.00 0.00 89 1009.2
20260506025529 25 0 0.0 1.6 0.00 0.00 0.00 88 1009.1
20260506025019 25 0 0.0 3.2 0.00 0.00 0.00 88 1009.1
20260506024540 25 0 0.0 3.2 0.00 0.00 0.00 88 1009.1
20260506024021 25 0 0.0 3.2 0.00 0.00 0.00 88 1009.0
20260506023521 25 0 0.0 3.2 0.00 0.00 0.00 88 1009.0
20260506023032 25 0 0.0 3.2 0.00 0.00 0.00 88 1008.9
20260506022520 25 0 0.0 1.6 0.00 0.00 0.00 87 1008.8
20260506022019 25 0 0.0 1.6 0.00 0.00 0.00 87 1008.7
20260506021537 25 0 0.0 1.6 0.00 0.00 0.00 87 1008.6
20260506021020 25 0 0.0 1.6 0.00 0.00 0.00 87 1008.6
20260506020518 25 18 0.0 1.6 0.00 0.00 0.00 87 1008.6
20260506020039 25 0 0.0 3.2 0.00 0.00 0.00 86 1008.5
20260506015519 25 0 0.0 3.2 0.00 0.00 0.00 86 1008.5
20260506015019 26 0 0.0 1.6 0.00 0.00 0.00 86 1008.4
20260506014536 26 0 0.0 3.2 0.00 0.00 0.00 86 1008.2
20260506014018 26 0 0.0 3.2 0.00 0.00 0.00 86 1008.1
20260506013518 26 0 0.0 1.6 0.00 0.00 0.00 86 1008.0
20260506013035 26 0 0.0 1.6 0.00 0.00 0.00 86 1007.9
20260506012518 26 0 0.0 3.2 0.00 0.00 0.00 85 1007.8
20260506012021 26 0 0.0 3.2 0.00 0.00 0.00 85 1007.8
20260506011600 26 0 0.0 3.2 0.00 0.00 0.00 85 1007.7
20260506011018 26 102 0.0 1.6 0.00 0.00 0.00 85 1007.7
20260506010521 26 0 0.0 1.6 0.00 0.00 0.00 84 1007.7
20260506010033 26 111 0.0 1.6 0.00 0.00 0.00 84 1007.7
20260506005519 26 210 0.0 1.6 0.00 0.00 0.00 84 1007.7
20260506005019 26 0 0.0 3.2 0.00 0.00 0.00 83 1007.6
20260506004547 26 0 0.0 3.2 0.00 0.00 0.00 83 1007.6
20260506004018 26 277 0.0 3.2 0.00 0.00 0.00 83 1007.4
20260506003520 26 0 0.0 3.2 0.00 0.00 0.00 82 1007.4
20260506003033 26 0 0.0 3.2 0.00 0.00 0.00 82 1007.6
20260506002519 26 224 0.0 4.8 0.00 0.00 0.00 82 1007.6
20260506002019 26 120 0.0 4.8 0.00 0.00 0.00 82 1007.4
20260506001537 26 0 0.0 1.6 0.00 0.00 0.00 82 1007.5
20260506001020 26 51 0.0 1.6 0.00 0.00 0.00 82 1007.5
20260506000524 26 0 0.0 1.6 0.00 0.00 0.00 82 1007.7
20260506000109 26 0 0.0 1.6 0.00 0.00 0.00 81 1007.5
20260505235519 27 0 0.0 4.8 0.00 0.00 0.00 81 1007.4
20260505235019 27 113 0.0 4.8 0.00 0.00 0.00 81 1007.4
20260505234545 27 0 0.0 4.8 0.00 0.00 0.00 81 1007.4
20260505234020 27 0 0.0 3.2 0.00 0.00 0.00 81 1007.5
20260505233519 27 0 0.0 3.2 0.00 0.00 0.00 81 1007.5
20260505233036 27 0 0.0 3.2 0.00 0.00 0.00 81 1007.5
20260505232522 27 266 0.0 3.2 0.00 0.00 0.00 80 1007.5
20260505232020 27 0 0.0 3.2 0.00 0.00 0.00 80 1007.4
20260505231537 27 0 0.0 3.2 0.00 0.00 0.00 80 1007.6
20260505231019 27 250 0.0 1.6 0.00 0.00 0.00 80 1007.6
20260505230518 27 0 0.0 3.2 0.00 0.00 0.00 81 1007.5
20260505230052 27 0 0.0 3.2 0.00 0.00 0.00 80 1007.5
20260505225523 27 0 0.0 4.8 0.00 0.00 0.00 79 1007.4
20260505225018 27 0 0.0 4.8 0.00 0.00 0.00 79 1007.3
20260505224542 27 0 0.0 4.8 0.00 0.00 0.00 80 1007.5
20260505224019 28 0 0.0 3.2 0.00 0.00 0.00 80 1007.6
20260505223518 28 244 0.0 3.2 0.00 0.00 0.00 79 1007.5
20260505223039 28 0 0.0 3.2 0.00 0.00 0.00 78 1007.4
20260505222524 28 0 0.0 1.6 0.00 0.00 0.00 78 1007.5
20260505222019 28 265 0.0 1.6 0.00 0.00 0.00 78 1007.6
20260505221536 28 0 0.0 3.2 0.00 0.00 0.00 79 1007.5
20260505221019 28 255 0.0 3.2 0.00 0.00 0.00 78 1007.6
20260505220520 28 0 0.0 1.6 0.00 0.00 0.00 79 1007.6
20260505220039 28 0 0.0 3.2 0.00 0.00 0.00 78 1007.6
20260505215520 28 0 0.0 3.2 0.00 0.00 0.00 78 1007.7
20260505215021 28 99 0.0 1.6 0.00 0.00 0.00 78 1007.7
20260505214537 28 0 0.0 4.8 0.00 0.00 0.00 78 1007.7
20260505214023 28 0 0.0 4.8 0.00 0.00 0.00 77 1007.7
20260505213519 28 224 0.0 4.8 0.00 0.00 0.00 77 1007.8
20260505213038 28 246 0.0 8.0 0.00 0.00 0.00 77 1007.9
20260505212519 28 0 0.0 8.0 0.00 0.00 0.00 76 1008.0
20260505212019 28 64 0.0 8.0 0.00 0.00 0.00 77 1008.0
20260505211540 28 252 1.6 4.8 0.00 0.00 0.00 76 1008.0
20260505211019 28 217 0.0 6.4 0.00 0.00 0.00 77 1008.1
20260505210522 28 123 0.0 6.4 0.00 0.00 0.00 77 1008.1
20260505210035 28 231 0.0 4.8 0.00 0.00 0.00 78 1008.1
20260505205519 28 234 0.0 4.8 0.00 0.00 0.00 78 1008.3
20260505205026 28 248 0.0 9.7 0.00 0.00 0.00 79 1008.3
20260505204548 28 0 0.0 9.7 0.00 0.00 0.00 79 1008.3
20260505204023 28 293 0.0 9.7 0.00 0.00 0.00 79 1008.4
20260505203521 28 0 0.0 3.2 0.00 0.00 0.00 80 1008.6
20260505203038 28 257 0.0 1.6 0.00 0.00 0.00 80 1008.8
20260505202520 28 0 0.0 1.6 0.00 0.00 0.00 80 1008.6
20260505202019 28 226 0.0 1.6 0.00 0.00 0.00 79 1008.8
20260505201535 28 0 0.0 3.2 0.00 0.00 0.00 78 1008.9
20260505201019 28 0 0.0 3.2 0.00 0.00 0.00 78 1008.9
20260505200521 28 255 0.0 3.2 0.00 0.00 0.00 77 1008.9
20260505200034 28 276 1.6 3.2 0.00 0.00 0.00 76 1009.0
20260505195518 28 191 0.0 3.2 0.00 0.00 0.00 78 1009.1
20260505195018 28 276 0.0 3.2 0.00 0.00 0.00 79 1009.1
20260505194545 28 259 0.0 3.2 0.00 0.00 0.00 80 1009.2
20260505194022 27 0 0.0 4.8 0.00 0.00 0.00 80 1009.3
20260505193522 27 292 0.0 4.8 0.00 0.00 0.00 80 1009.3
20260505193037 27 0 0.0 1.6 0.00 0.00 0.00 81 1009.4
20260505192518 27 0 0.0 4.8 0.00 0.00 0.00 81 1009.3
20260505192021 27 0 0.0 4.8 0.00 0.00 0.00 80 1009.5
20260505191552 27 241 0.0 4.8 0.00 0.00 0.00 80 1009.4
20260505191021 27 0 0.0 4.8 0.00 0.00 0.00 81 1009.4
20260505190522 27 237 0.0 3.2 0.00 0.00 0.00 82 1009.4
20260505190040 27 0 0.0 4.8 0.00 0.00 0.00 83 1009.5
20260505185519 26 238 0.0 4.8 0.00 0.00 0.00 83 1009.6
20260505185023 26 252 0.0 4.8 0.00 0.00 0.00 83 1009.6
20260505184538 27 252 0.0 4.8 0.00 0.00 0.00 82 1009.6
20260505184019 27 251 0.0 4.8 0.00 0.00 0.00 82 1009.7
20260505183518 27 223 0.0 1.6 0.00 0.00 0.00 83 1009.6
20260505183035 27 0 0.0 3.2 0.00 0.00 0.00 84 1009.7
20260505182518 26 0 0.0 3.2 0.00 0.00 0.00 84 1009.8
20260505182018 26 0 0.0 1.6 0.00 0.00 0.00 85 1009.8
20260505181540 26 0 0.0 1.6 0.00 0.00 0.00 85 1009.9
20260505181019 26 0 0.0 4.8 0.00 0.00 0.00 85 1009.9
20260505180518 26 0 0.0 4.8 0.00 0.00 0.00 85 1009.9
20260505180046 26 0 0.0 4.8 0.00 0.00 0.00 84 1009.9
20260505175518 26 255 0.0 4.8 0.00 0.00 0.00 85 1009.9
20260505175019 26 0 0.0 3.2 0.00 0.00 0.00 85 1010.0
20260505174536 26 188 0.0 3.2 0.00 0.00 0.00 86 1010.0
20260505174019 26 213 0.0 1.6 0.00 0.00 0.00 86 1010.0
20260505173521 26 0 0.0 4.8 0.00 0.00 0.00 86 1010.1
20260505173034 26 0 0.0 4.8 0.00 0.00 0.00 86 1010.1
20260505172518 26 0 0.0 1.6 0.00 0.00 0.00 87 1010.0
20260505172018 26 0 0.0 3.2 0.00 0.00 0.00 86 1010.0
20260505171538 26 0 0.0 3.2 0.00 0.00 0.00 85 1010.1
20260505171019 26 0 0.0 3.2 0.00 0.00 0.00 85 1010.2
20260505170518 26 0 0.0 3.2 0.00 0.00 0.00 85 1010.2
20260505170035 26 0 0.0 3.2 0.00 0.00 0.00 85 1010.2
20260505165519 26 257 0.0 3.2 0.00 0.00 0.00 84 1010.2
20260505165019 26 0 0.0 3.2 0.00 0.00 0.00 85 1010.3
20260505164533 26 0 0.0 3.2 0.00 0.00 0.00 85 1010.2
20260505164019 26 0 0.0 1.6 0.00 0.00 0.00 85 1010.2
20260505163519 26 226 0.0 1.6 0.00 0.00 0.00 85 1010.2
20260505163033 26 258 0.0 3.2 0.00 0.00 0.00 86 1010.2
20260505162518 26 0 0.0 3.2 0.00 0.00 0.00 86 1010.1
20260505162022 25 0 0.0 3.2 0.00 0.00 0.00 86 1010.1
20260505161535 25 0 0.0 3.2 0.00 0.00 0.00 85 1010.0
20260505161019 25 0 0.0 3.2 0.00 0.00 0.00 85 1010.0
20260505160519 26 223 0.0 3.2 0.00 0.00 0.00 85 1010.0
20260505153036 25 0 0.0 3.2 0.00 0.00 0.00 87 1009.8
20260505152519 25 255 0.0 3.2 0.00 0.00 0.00 86 1009.8
20260505152022 25 0 0.0 3.2 0.00 0.00 0.00 86 1009.7
20260505151541 25 301 0.0 4.8 0.00 0.00 0.00 87 1009.8
20260505151021 25 64 0.0 4.8 0.00 0.00 0.00 86 1009.7
20260505150520 25 219 0.0 3.2 0.00 0.00 0.00 87 1009.7
20260505140520 24 0 0.0 1.6 0.00 0.00 0.00 89 1009.8
20260505125019 22 0 0.0 3.2 0.00 0.00 0.00 92 1009.6
20260505124542 22 0 0.0 1.6 0.00 0.00 0.00 92 1009.5
20260505124021 22 0 0.0 1.6 0.00 0.00 0.00 92 1009.4
20260505123520 22 0 0.0 1.6 0.00 0.00 0.00 92 1009.5
20260505123044 22 0 0.0 1.6 0.00 0.00 0.00 92 1009.4
20260505122519 22 0 0.0 1.6 0.00 0.00 0.00 92 1009.4
20260505122019 22 0 0.0 1.6 0.00 0.00 0.00 92 1009.2
20260505121610 22 0 0.0 1.6 0.00 0.00 0.00 92 1009.1
20260505121021 22 0 0.0 1.6 0.00 0.00 0.00 92 1008.9
20260505120519 22 0 0.0 0.0 0.00 0.00 0.00 91 1008.9
20260505120036 22 0 0.0 1.6 0.00 0.00 0.00 92 1008.7
20260505115520 22 0 0.0 1.6 0.00 0.00 0.00 92 1008.9
20260505115021 22 0 0.0 1.6 0.00 0.00 0.00 92 1009.2
20260505114536 22 0 0.0 1.6 0.00 0.00 0.00 92 1009.3
20260505114020 22 0 0.0 1.6 0.00 0.00 0.00 92 1009.4
20260505113519 22 0 0.0 1.6 0.00 0.00 0.00 92 1009.2
20260505113032 22 0 0.0 1.6 0.00 0.00 0.00 92 1009.1
20260505112519 22 227 0.0 0.0 0.00 0.00 0.00 92 1009.0
20260505112019 22 0 0.0 0.0 0.00 0.00 0.00 92 1009.0
20260505111539 22 0 0.0 0.0 0.00 0.00 0.00 92 1008.9
20260505111019 21 0 0.0 0.0 0.00 0.00 0.00 92 1008.9
20260505110519 21 0 0.0 0.0 0.00 0.00 0.00 92 1008.9
20260505102019 21 0 0.0 0.0 0.00 0.00 0.00 92 1009.0
20260505101541 21 0 0.0 1.6 0.00 0.00 0.00 92 1009.0
20260505101020 21 0 0.0 1.6 0.00 0.00 0.00 92 1009.1
20260505100519 21 0 0.0 0.0 0.00 0.00 0.00 92 1009.2
20260505100042 21 0 0.0 0.0 0.00 0.00 0.00 92 1009.2
20260505095522 21 0 0.0 1.6 0.00 0.00 0.00 91 1009.1
20260505095022 21 0 0.0 1.6 0.00 0.00 0.00 91 1009.0
20260505094536 21 0 0.0 1.6 0.00 0.00 0.00 91 1009.0
20260505094019 21 0 0.0 1.6 0.00 0.00 0.00 91 1009.1
20260505093520 21 0 0.0 1.6 0.00 0.00 0.00 91 1009.1
20260505093035 21 0 0.0 1.6 0.00 0.00 0.00 91 1009.2
20260505092521 21 0 0.0 1.6 0.00 0.00 0.00 91 1009.2
20260505092018 21 0 0.0 0.0 0.00 0.00 0.00 91 1009.4
20260505091539 21 0 0.0 0.0 0.00 0.00 0.00 91 1009.4
20260505091021 21 0 0.0 1.6 0.00 0.00 0.00 91 1009.4
20260505090519 21 0 0.0 1.6 0.00 0.00 0.00 91 1009.4
20260505090046 21 0 0.0 1.6 0.00 0.00 0.00 91 1009.4
20260505085519 21 0 0.0 1.6 0.00 0.00 0.00 91 1009.5
20260505085022 21 0 0.0 0.0 0.00 0.00 0.00 91 1009.4
20260505084535 21 0 0.0 0.0 0.00 0.00 0.00 91 1009.4
20260505084018 21 0 0.0 1.6 0.00 0.00 0.00 91 1009.3
20260505083521 21 0 0.0 1.6 0.00 0.00 0.00 91 1009.5
20260505083048 21 0 0.0 1.6 0.00 0.00 0.00 91 1009.5
20260505082519 21 0 0.0 1.6 0.00 0.00 0.00 91 1009.5
20260505082019 21 0 0.0 1.6 0.00 0.00 0.00 91 1009.5
20260505081540 21 0 0.0 1.6 0.00 0.00 0.00 91 1009.6
20260505081019 21 0 0.0 0.0 0.00 0.00 0.00 90 1009.7
20260505080518 21 0 0.0 0.0 0.00 0.00 0.00 90 1009.8
20260505080044 21 0 0.0 0.0 0.00 0.00 0.00 90 1009.8
20260505075543 21 0 0.0 0.0 0.00 0.00 0.00 90 1009.7
20260505075018 21 0 0.0 0.0 0.00 0.00 0.00 90 1009.8
20260505074538 21 0 0.0 0.0 0.00 0.00 0.00 90 1009.8
20260505074022 21 0 0.0 0.0 0.00 0.00 0.00 90 1009.9
20260505073520 21 0 0.0 0.0 0.00 0.00 0.00 90 1009.9
20260505073043 21 0 0.0 0.0 0.00 0.00 0.00 90 1009.9
20260505072521 21 0 0.0 3.2 0.00 0.00 0.00 90 1009.8
20260505072018 21 0 0.0 3.2 0.00 0.00 0.00 90 1009.9
20260505071542 21 353 0.0 1.6 0.00 0.00 0.00 90 1010.0
20260505071022 21 0 0.0 1.6 0.00 0.00 0.00 90 1010.0
20260505070519 21 41 0.0 1.6 0.00 0.00 0.00 90 1010.1
20260505070038 21 0 0.0 1.6 0.00 0.00 0.00 89 1010.1
20260505065519 21 0 0.0 1.6 0.00 0.00 0.00 89 1010.3
20260505065020 21 0 0.0 1.6 0.00 0.00 0.00 89 1010.2
20260505064537 21 0 0.0 1.6 0.00 0.00 0.00 89 1010.4
20260505064019 21 0 0.0 1.6 0.00 0.00 0.00 89 1010.4
20260505063518 21 0 0.0 0.0 0.00 0.00 0.00 89 1010.6
20260505063045 21 0 0.0 0.0 0.00 0.00 0.00 89 1010.7
20260505062519 21 0 0.0 1.6 0.00 0.00 0.00 88 1010.8
20260505062026 21 0 0.0 1.6 0.00 0.00 0.00 88 1010.8
20260505061540 21 0 0.0 1.6 0.00 0.00 0.00 88 1011.1
20260505061022 21 0 0.0 1.6 0.00 0.00 0.00 88 1011.1
20260505060519 21 0 0.0 1.6 0.00 0.00 0.00 88 1010.9